Погода в Либурне

Франция     44°55′09″N   0°14′22″E
темп.,
°C
ветер,
м/с
пор.,
м/с
влажн.,
%
обл.,
%
осадки,
мм/ч
давл.,
гПа
погр.,
м
8 мая, сб
сб823:00+12юв2287100 0.0 101818
02:00+11ю229199 0.0 101721
05:00+11ююв2294100 0.0 101617
08:00+13юв259357 0.0 1015145
11:00+20юв576369 0.0 1014708
14:00+24ююв6751100 0.0 10121068
17:00+27юв6847100 0.0 10081433
20:00+24ююв51359100 0.0 1006460
9 мая, вс
вс923:00+21ююв71765100 0.0 1006548
02:00+18юв81770100 0.0 1004468
05:00+16юв71578100 0.0 1003436
08:00+16юв61476100 0.0 1003539
11:00+20ююв71262100 0.0 1004722
14:00+17юв101680100 0.2 1003682
17:00+21ююв71168100 0.3 10011137
20:00+12з31197100 8.4 1003451
10 мая, пн
пн1023:00+13зсз3794100 1.9 1005441
02:00+12з51091100 3.5 1006624
05:00+11ююз389445 0.6 1008379
08:00+12ююз269389 0.6 1009322
11:00+15ююз34707 1.4 1010866
14:00+17ююз346022 2.8 10091397
17:00+18зсз355275 0.3 10071138
20:00+16св2467100 0.4 100782
11 мая, вт
вт1123:00+11з2291100 0.8 100929
02:00+10сз1192100 1.1 100911
05:00+10зсз4995100 1.1 1010667
08:00+9зсз2794100 4.7 1012421
11:00+13зсз7107356 0.6 10131268
14:00+16зсз81049100 0.8 10152279
17:00+16зсз8105644 0.6 10161872
20:00+13зсз58681 0.9 1018986
12 мая, ср
ср1223:00+9юз228748 0.0 101937
02:00+8ююз348977 0.0 101962
05:00+7ю239198 0.0 101749
08:00+10ю238169 0.0 1017127
11:00+15ююв336458 0.0 1016996
14:00+18ю454799 0.1 10142011
17:00+17з365452 0.0 1013651
20:00+16зсз596199 0.1 1013555